This is the latest recevied weather packets stored in our database for station/object N4JTC. If no packets are shown the sender has not sent any weather packets the latest 10 day(s).
| Time | Temp. | Humidity | Pressure | Rain* | Wind** | Luminosity | Snow |
|---|---|---|---|---|---|---|---|
| 1777743303 | 17.78° C | 83% | 1013.9 hPa | 0 mm | - | 308 W/m² | - |
| 1777742703 | 17.22° C | 84% | 1013.8 hPa | 0 mm | - | 278 W/m² | - |
| 1777742403 | 17.22° C | 84% | 1013.8 hPa | 0 mm | - | 390 W/m² | - |
| 1777742103 | 17.22° C | 85% | 1014 hPa | 0 mm | - | 488 W/m² | - |
| 1777741803 | 16.67° C | 86% | 1013.7 hPa | 0 mm | - | 401 W/m² | - |
| 1777741503 | 16.67° C | 85% | 1013.6 hPa | 0 mm | - | 248 W/m² | - |
| 1777741203 | 16.67° C | 85% | 1013.9 hPa | 0 mm | - | 228 W/m² | - |
| 1777740903 | 16.67° C | 86% | 1013.9 hPa | 0 mm | - | 288 W/m² | - |
| 1777740603 | 16.11° C | 86% | 1013.8 hPa | 0 mm | - | 359 W/m² | - |
| 1777740303 | 17.22° C | 86% | 1013.6 hPa | 0 mm | - | 195 W/m² | - |
| 1777740002 | 17.22° C | 85% | 1013.5 hPa | 0 mm | - | 345 W/m² | - |
| 1777739703 | 17.22° C | 84% | 1013.4 hPa | 0 mm | - | 452 W/m² | - |
| 1777739403 | 17.22° C | 84% | 1013.4 hPa | 0 mm | - | 1003 W/m² | - |
| 1777739103 | 16.67° C | 86% | 1013.3 hPa | 0 mm | - | 517 W/m² | - |
| 1777738502 | 16.11° C | 89% | 1013.3 hPa | 0 mm | - | 662 W/m² | - |
| 1777738203 | 15.56° C | 90% | 1013.5 hPa | 0 mm | - | 400 W/m² | - |
| 1777737903 | 15.56° C | 92% | 1013.2 hPa | 0 mm | - | 551 W/m² | - |
| 1777737303 | 15° C | 92% | 1013.4 hPa | 0 mm | - | 367 W/m² | - |
| 1777737003 | 15° C | 92% | 1013.3 hPa | 0 mm | - | 469 W/m² | - |
| 1777736703 | 14.44° C | 93% | 1013.4 hPa | 0 mm | - | 326 W/m² | - |
| 1777736403 | 15° C | 94% | 1013.4 hPa | 0 mm | - | 184 W/m² | - |
| 1777736103 | 14.44° C | 94% | 1013.4 hPa | 0 mm | - | 153 W/m² | - |
| 1777735502 | 14.44° C | 93% | 1013.3 hPa | 0 mm | - | 262 W/m² | - |
| 1777734903 | 14.44° C | 94% | 1013.1 hPa | 0 mm | - | 171 W/m² | - |
| 1777734302 | 14.44° C | 94% | 1013.2 hPa | 0 mm | - | 126 W/m² | - |
* Rain latest hour (hover to see other rain measurements)
** Current wind speed in m/s (hover to see current wind gust speed)